Stations météo

réclame
Mon MeteoGroup
Brest, France (7110): Température de l'air & dewpoint: 13.06.2019 07:00:00 - 19.06.2019 07:00:00 (CEST)Brest, France (7110): Température de l'air 5cm: 13.06.2019 07:00:00 - 19.06.2019 07:00:00 (CEST)Brest, France (7110): Température de l'air -20cm & Température de l'air -100cm: 13.06.2019 07:00:00 - 19.06.2019 07:00:00 (CEST)Brest, France (7110): Vitesse du vent & gusts: 13.06.2019 07:00:00 - 19.06.2019 07:00:00 (CEST)Brest, France (7110): Direction du vent: 13.06.2019 07:00:00 - 19.06.2019 07:00:00 (CEST)Brest, France (7110): reduced air pressure: 13.06.2019 07:00:00 - 19.06.2019 07:00:00 (CEST)Brest, France (7110): visibility: 13.06.2019 07:00:00 - 19.06.2019 07:00:00 (CEST)Brest, France (7110): Ensoleillement: 13.06.2019 07:00:00 - 19.06.2019 07:00:00 (CEST)Brest, France (7110): Quantités de précipitations: 13.06.2019 07:00:00 - 19.06.2019 07:00:00 (CEST)
Date & Time tt [°C] td [°C] tt 5cm [°C] tt -20cm [°C] tt -100cm [°C] ff [km/h] ff [knt] fx [km/h] fx [knt] dd ppp [hPa] vv [km] sd [min] rr [mm]
19.06.2019 07:00:00 13,8 13,5 13,5 15,4 13,5 0 0 11 6 N 1009,0 4,1 0 0,0
19.06.2019 06:00:00 13,7 13,4 13,5 15,5 13,5 8 4 12 6 NNE 1009,0 4,4 0 0,4
19.06.2019 05:00:00 13,7 13,4 13,5 15,5 13,5 5 3 9 5 NNW 1009,1 3,1 0 0,0
19.06.2019 04:00:00 13,6 13,3 13,5 15,5 13,5 4 2 12 6 ENE 1009,1 1,9 0 0,0
19.06.2019 03:00:00 13,3 13,0 13,4 15,5 13,4 7 4 19 10 NNE 1008,5 0,6 0 0,0
19.06.2019 02:00:00 13,5 13,0 13,6 15,6 13,6 9 5 21 12 N 1008,8 0,2 0 0,0
19.06.2019 01:00:00 14,3 13,7 13,5 15,5 13,4 12 7 18 10 N 1008,8 0,2 0 0,0
19.06.2019 00:00:00 15,6 14,6 13,2 15,5 13,5 8 4 12 6 NNW 1009,3 4,0 0 0,0
18.06.2019 23:00:00 16,6 15,1 14,8 15,6 13,5 4 2 11 6 ENE 1009,3 9 0 0,0
18.06.2019 22:00:00 17,2 15,9 16,4 15,5 13,5 5 3 15 8 NE 1009,3 9 0 0,0
18.06.2019 21:00:00 17,6 15,6 17,4 15,4 13,5 5 3 18 10 N 1009,3 16 0 0,2
18.06.2019 20:00:00 18,2 15,3 18,4 15,4 13,4 5 3 17 9 NE 1009,6 23 0 0,0
18.06.2019 19:00:00 18,7 14,4 20,2 15,5 13,4 10 5 19 11 NE 1009,5 36 0 0,0
18.06.2019 18:00:00 19,4 13,3 23,2 15,3 13,5 11 6 19 11 NNE 1009,7 41 0 0,0
18.06.2019 17:00:00 20,2 13,6 25,0 15,3 13,5 13 7 23 12 NE 1009,9 26 0 0,0
18.06.2019 16:00:00 20,3 13,5 24,9 15,1 13,5 15 8 22 12 ENE 1009,9 29 0 0,0
18.06.2019 15:00:00 20,4 14,1 25,1 15,2 13,3 10 6 21 11 ENE 1010,4 40 0 0,0
18.06.2019 14:00:00 21,2 13,9 30,3 15,2 13,6 14 7 27 15 E 1010,4 42 11 0,0
18.06.2019 13:00:00 20,4 13,6 21,8 15,2 13,4 16 9 26 14 E 1011,0 30 2 0,0
18.06.2019 12:00:00 18,4 13,3 20,5 15,2 13,3 16 8 23 13 E 1011,2 41 0 0,0
18.06.2019 11:00:00 17,4 13,5 18,1 15,3 13,3 3 2 11 6 SSE 1011,4 20 0 0,0
18.06.2019 10:00:00 15,2 12,7 14,7 15,3 13,5 11 6 26 14 E 1011,7 26 0 0,0
18.06.2019 09:00:00 14,0 12,2 13,4 15,3 13,4 19 11 32 17 ENE 1011,5 18 0 0,0
18.06.2019 08:00:00 13,4 11,5 12,4 15,4 13,4 16 8 34 18 ENE 1012,2 18 0 0,0
18.06.2019 07:00:00 12,8 10,2 12,2 15,4 13,5 19 10 26 14 ENE 1012,9 19 0 0,0
18.06.2019 06:00:00 12,6 9,6 11,8 15,3 13,6 13 7 19 10 NE 1013,5 28 0 0,0
18.06.2019 05:00:00 12,6 9,2 11,7 15,5 13,4 9 5 19 11 NE 1014,3 37 0 0,0
18.06.2019 04:00:00 12,7 9,7 11,8 15,5 13,4 11 6 19 10 NE 1014,8 26 0 0,0
18.06.2019 03:00:00 12,6 10,0 11,7 15,6 13,5 12 6 16 9 NE 1015,3 26 0 0,0
18.06.2019 02:00:00 12,8 9,2 11,8 15,7 13,4 10 5 17 9 NE 1015,9 33 0 0,0
18.06.2019 01:00:00 13,3 9,7 12,7 15,5 13,5 11 6 18 10 NE 1016,2 28 0 0,0
18.06.2019 00:00:00 13,6 9,6 12,8 15,6 13,4 9 5 15 8 NNE 1016,6 34 0 0,0
17.06.2019 23:00:00 14,1 9,1 13,4 15,7 13,4 9 5 16 8 NNE 1016,9 34 0 0,0
17.06.2019 22:00:00 15,3 9,6 14,8 15,7 13,4 10 5 16 9 NE 1017,0 42 0 0,0
17.06.2019 21:00:00 18,3 9,6 19,2 15,5 13,4 4 2 9 5 N 1016,5 45 37 0,0
17.06.2019 20:00:00 19,5 9,7 24,9 15,5 13,3 5 3 16 8 W 1016,8 43 60 0,0
17.06.2019 19:00:00 19,3 9,2 24,1 15,5 13,4 9 5 17 9 SSW 1017,1 36 56 0,0
17.06.2019 18:00:00 19,6 8,9 27,7 15,4 13,4 9 5 25 14 SW 1017,1 28 60 0,0
17.06.2019 17:00:00 19,8 9,1 28,4 15,2 13,3 11 6 29 16 SW 1017,8 24 60 0,0
17.06.2019 16:00:00 18,6 9,9 21,2 15,2 13,4 14 7 25 14 WSW 1018,1 20 26 0,0
17.06.2019 15:00:00 18,1 10,0 22,0 15,0 13,4 14 8 25 13 SSW 1018,3 42 44 0,0
17.06.2019 14:00:00 18,0 10,6 28,4 15,0 13,4 17 9 34 18 SSW 1018,6 20 54 0,0
17.06.2019 13:00:00 17,7 10,3 26,3 14,9 13,5 16 9 29 16 S 1018,7 19 46 0,0
17.06.2019 12:00:00 17,9 11,0 21,6 15,0 13,4 17 9 31 17 S 1018,9 27 51 0,0
17.06.2019 11:00:00 16,4 11,3 20,4 15,0 13,4 17 9 35 19 S 1018,8 19 60 0,0
17.06.2019 10:00:00 16,3 11,9 16,2 15,1 13,4 18 10 26 14 S 1018,9 18 41 0,0
17.06.2019 09:00:00 14,3 12,0 15,4 15,1 13,4 16 9 22 12 SSW 1019,1 27 0 0,0
17.06.2019 08:00:00 13,7 12,1 12,8 15,1 13,4 13 7 21 12 SSW 1018,8 19 2 0,0
17.06.2019 07:00:00 13,1 12,0 12,0 15,1 13,4 16 8 23 12 SSW 1018,9 17 0 0,0
17.06.2019 06:00:00 12,9 11,6 12,9 15,1 13,4 14 8 26 14 SSW 1019,2 14 0 0,0
17.06.2019 05:00:00 13,1 11,8 13,0 15,1 13,4 16 9 27 14 SW 1019,1 15 0 0,0
17.06.2019 04:00:00 13,3 12,0 13,2 15,2 13,4 18 10 29 16 SW 1019,3 15 0 0,0
17.06.2019 03:00:00 13,3 12,0 13,5 15,2 13,4 16 9 33 18 SSW 1019,6 16 0 0,0
17.06.2019 02:00:00 13,4 12,1 13,5 15,2 13,3 20 11 32 17 SSW 1019,7 17 0 0,0
17.06.2019 01:00:00 13,5 11,9 12,6 15,2 13,3 20 11 35 19 SSW 1019,8 18 0 0,0
17.06.2019 00:00:00 13,3 11,7 12,2 15,2 13,4 18 10 28 15 S 1020,0 20 0 0,0
16.06.2019 23:00:00 13,5 11,7 12,9 15,2 13,3 18 10 32 18 S 1020,0 18 0 0,0
16.06.2019 22:00:00 13,9 11,8 13,7 15,2 13,3 17 9 36 19 SSW 1019,7 20 3 0,0
16.06.2019 21:00:00 14,5 11,3 14,7 15,1 13,3 21 11 41 22 SSW 1019,6 29 14 0,0
16.06.2019 20:00:00 14,9 10,3 15,5 15,1 13,3 26 14 39 21 SSW 1019,3 14 33 0,0
16.06.2019 19:00:00 16,1 11,5 19,6 15,0 13,3 25 13 51 27 SSW 1019,2 15 8 0,0
16.06.2019 18:00:00 16,1 11,7 19,6 14,9 13,3 29 15 49 27 SW 1019,5 20 4 0,0
16.06.2019 17:00:00 15,8 10,8 19,7 14,9 13,3 35 19 51 28 SW 1019,6 10 15 0,0
16.06.2019 16:00:00 17,3 11,6 22,8 14,8 13,3 33 18 48 26 SSW 1019,5 11 44 0,0
16.06.2019 15:00:00 17,0 12,1 25,3 14,7 13,5 37 20 51 28 SW 1019,5 10 48 0,0
16.06.2019 14:00:00 17,2 12,9 20,3 14,7 13,3 29 15 47 25 SW 1019,4 14 1 0,0
16.06.2019 13:00:00 16,0 12,7 20,2 14,6 13,3 26 14 48 26 SSW 1019,3 18 0 0,0
16.06.2019 12:00:00 15,4 12,7 20,0 14,6 13,3 26 14 45 24 SW 1019,2 19 0 0,0
16.06.2019 11:00:00 16,0 12,0 17,0 14,7 13,3 24 13 42 23 SSW 1018,8 39 0 0,0
16.06.2019 10:00:00 14,5 12,4 16,9 14,7 13,3 27 14 39 21 SSW 1018,8 37 0 0,0
16.06.2019 09:00:00 14,5 12,4 14,7 14,7 13,3 21 12 36 20 SSW 1018,3 20 0 0,0
16.06.2019 08:00:00 13,8 11,8 13,8 14,7 13,3 22 12 37 20 SW 1018,0 41 0 0,0
16.06.2019 07:00:00 13,6 12,3 13,7 14,8 13,4 21 12 37 20 SW 1017,4 18 0 0,0
16.06.2019 06:00:00 13,7 12,4 13,7 14,8 13,3 26 14 49 26 SW 1017,2 16 0 0,0
16.06.2019 05:00:00 13,7 12,4 13,8 14,8 13,3 31 17 47 26 SW 1017,0 15 0 0,0
16.06.2019 04:00:00 13,8 12,5 13,7 14,8 13,3 27 14 45 24 SW 1017,2 16 0 0,0
16.06.2019 03:00:00 13,8 12,2 13,4 14,8 13,3 25 14 40 22 SW 1017,2 20 0 0,0
16.06.2019 02:00:00 13,6 12,0 13,2 14,8 13,3 26 14 42 23 SW 1017,2 20 0 0,0
16.06.2019 01:00:00 13,6 12,0 13,5 14,8 13,3 29 16 46 25 SW 1017,0 20 0 0,0
16.06.2019 00:00:00 13,7 12,4 13,4 14,8 13,3 25 14 41 22 SW 1016,7 29 0 0,0
15.06.2019 23:00:00 13,4 12,1 13,4 14,8 13,3 23 13 40 22 SW 1016,6 20 0 0,0
15.06.2019 22:00:00 13,5 12,1 13,7 14,8 13,2 23 13 38 20 SW 1016,1 32 0 0,0
15.06.2019 21:00:00 13,8 12,4 14,5 14,8 13,3 23 12 38 20 WSW 1015,8 36 0 0,0
15.06.2019 20:00:00 14,1 13,1 14,7 14,7 13,3 22 12 40 22 WSW 1015,3 34 0 1,6
15.06.2019 19:00:00 14,1 12,8 15,5 14,7 13,3 18 10 35 19 SW 1015,0 25 1 1,6
15.06.2019 18:00:00 14,3 12,5 16,6 14,6 13,2 24 13 39 21 SW 1014,9 3,5 0 0,6
15.06.2019 17:00:00 15,2 11,6 19,3 14,5 13,3 29 16 42 23 SW 1014,8 22 16 0,0
15.06.2019 16:00:00 16,9 12,2 20,5 14,5 13,3 30 16 44 24 SW 1014,4 11 48 0,0
15.06.2019 15:00:00 15,4 12,9 16,3 14,5 13,3 27 14 44 24 SW 1014,0 16 19 0,0
15.06.2019 14:00:00 13,8 13,0 14,3 14,4 13,3 18 10 38 21 WSW 1013,6 7 2 6,1
15.06.2019 13:00:00 15,0 12,7 17,8 14,4 13,3 29 15 40 22 SW 1013,4 18 3 0,0
15.06.2019 12:00:00 14,2 12,8 15,9 14,5 13,2 27 15 39 21 SW 1013,2 20 3 0,0
15.06.2019 11:00:00 13,6 12,8 14,1 14,5 13,3 24 13 44 24 SW 1013,1 15 0 1,2
15.06.2019 10:00:00 13,2 12,3 13,8 14,5 13,3 22 12 46 25 SW 1012,9 3,6 0 0,6
15.06.2019 09:00:00 12,7 12,1 13,0 14,6 13,3 28 15 44 24 SSW 1012,4 18 0 1,0
15.06.2019 08:00:00 12,4 11,6 12,2 14,6 13,3 24 13 48 26 SSW 1012,0 16 0 1,0
15.06.2019 07:00:00 11,9 10,8 11,9 14,6 13,3 25 14 42 23 SSW 1012,1 4,0 0 1,6
15.06.2019 06:00:00 11,9 9,8 12,3 14,6 13,3 27 15 43 23 SSW 1012,2 10 0 0,2
15.06.2019 05:00:00 12,5 11,1 12,5 14,7 13,3 26 14 41 22 SSW 1012,0 31 0 0,4
15.06.2019 04:00:00 12,7 10,6 12,5 14,7 13,3 24 13 40 21 SSW 1012,2 15 0 0,0
15.06.2019 03:00:00 12,8 10,9 11,9 14,8 13,2 22 12 37 20 SSW 1012,4 48 0 0,0
15.06.2019 02:00:00 12,7 10,6 11,7 14,8 13,3 22 12 34 19 SSW 1012,6 50 0 0,0
15.06.2019 01:00:00 12,6 10,1 11,1 14,8 13,3 20 11 32 17 SSW 1012,8 57 0 0,0
15.06.2019 00:00:00 12,4 10,1 11,3 14,8 13,3 20 11 29 16 SSW 1013,0 56 0 0,0
14.06.2019 23:00:00 12,6 10,0 11,8 14,8 13,3 19 11 30 16 SSW 1012,7 60 0 0,0
14.06.2019 22:00:00 13,2 9,6 13,5 14,8 13,3 20 11 35 19 SSW 1012,3 59 0 0,0
14.06.2019 21:00:00 13,6 9,6 14,0 14,8 13,2 21 11 38 20 SW 1012,5 19 7 0,0
14.06.2019 20:00:00 14,6 8,8 15,3 14,7 13,3 29 15 45 24 SW 1012,4 16 60 0,0
14.06.2019 19:00:00 14,8 10,2 17,2 14,7 13,3 27 15 41 22 SSW 1012,2 24 8 0,0
14.06.2019 18:00:00 15,3 9,9 19,6 14,5 13,3 25 13 43 23 SSW 1012,2 20 13 0,0
14.06.2019 17:00:00 16,0 9,9 21,2 14,4 13,3 27 14 40 22 SW 1012,2 14 17 0,0
14.06.2019 16:00:00 15,8 9,9 16,2 14,4 13,3 27 15 43 23 SW 1012,3 22 20 0,0
14.06.2019 15:00:00 13,6 10,6 15,0 14,4 13,3 21 12 38 20 SW 1012,4 27 0 0,4
14.06.2019 14:00:00 14,4 10,0 18,8 14,3 13,2 29 16 52 28 SW 1012,3 20 0 0,0
14.06.2019 13:00:00 15,7 8,7 25,0 14,2 13,3 29 15 46 25 SSW 1012,1 16 42 0,0
14.06.2019 12:00:00 16,4 10,0 26,3 14,2 13,2 29 16 46 25 SW 1011,9 10 60 0,0
14.06.2019 11:00:00 15,8 10,1 18,4 14,2 13,2 29 16 42 23 SW 1011,9 26 55 0,0
14.06.2019 10:00:00 14,4 10,6 15,6 14,2 13,2 27 14 45 24 SW 1011,6 27 46 0,0
14.06.2019 09:00:00 13,4 11,3 13,9 14,2 13,3 23 12 33 18 SW 1011,4 13 18 0,0
14.06.2019 08:00:00 12,2 11,1 12,4 14,2 13,3 16 9 28 15 SW 1011,1 20 0 0,0
14.06.2019 07:00:00 11,8 10,5 12,2 14,3 13,3 16 8 34 18 SW 1010,9 35 0 0,0
14.06.2019 06:00:00 12,4 11,3 12,5 14,4 13,3 19 11 33 18 SW 1010,5 12 0 0,4
14.06.2019 05:00:00 12,5 11,1 12,4 14,3 13,3 21 11 36 19 SSW 1010,4 38 0 0,0
14.06.2019 04:00:00 12,3 11,0 12,4 14,3 13,3 21 11 40 22 SW 1010,6 39 0 1,0
14.06.2019 03:00:00 12,8 10,7 12,2 14,3 13,3 22 12 37 20 SSW 1010,9 14 0 0,0
14.06.2019 02:00:00 12,5 10,2 11,9 14,3 13,3 21 11 36 19 SSW 1011,2 57 0 0,0
14.06.2019 01:00:00 12,7 10,2 12,5 14,3 13,3 22 12 33 18 SW 1011,4 59 0 0,0
14.06.2019 00:00:00 12,7 10,4 12,5 14,3 13,3 18 10 32 17 SSW 1011,3 57 0 0,0
13.06.2019 23:00:00 12,7 10,2 12,3 14,3 13,3 20 11 32 18 SW 1011,4 51 0 0,0
13.06.2019 22:00:00 12,8 9,8 13,1 14,3 13,3 18 10 32 18 SW 1010,8 52 0 0,0
13.06.2019 21:00:00 13,3 9,9 14,3 14,2 13,3 19 10 32 18 WSW 1010,9 54 0 0,0
13.06.2019 20:00:00 13,5 9,9 14,7 14,2 13,3 22 12 33 18 SW 1010,7 50 0 0,0
13.06.2019 19:00:00 13,8 10,0 16,1 14,1 13,3 24 13 35 19 SW 1010,3 55 17 0,0
13.06.2019 18:00:00 15,1 10,5 18,4 14,0 13,3 25 13 37 20 SW 1010,3 38 24 0,0
13.06.2019 17:00:00 14,3 9,7 18,2 13,9 13,3 22 12 37 20 SW 1010,1 43 3 0,0
13.06.2019 16:00:00 14,8 9,4 21,8 13,8 13,2 23 13 41 22 SW 1010,2 23 25 0,0
13.06.2019 15:00:00 14,6 9,0 21,8 13,7 13,3 26 14 39 21 SW 1010,1 28 18 0,0
13.06.2019 14:00:00 15,5 9,2 23,4 13,7 13,3 24 13 38 21 SW 1009,9 20 44 0,0
13.06.2019 13:00:00 15,0 9,4 18,2 13,7 13,3 29 15 38 20 SW 1009,7 20 12 0,0
13.06.2019 12:00:00 14,6 8,8 17,9 13,6 13,3 24 13 34 18 SW 1009,7 27 38 0,0
13.06.2019 11:00:00 13,2 9,1 15,8 13,6 13,3 19 10 27 15 SW 1009,7 43 0 0,0
13.06.2019 10:00:00 12,2 9,6 14,2 13,8 13,4 15 8 23 12 WSW 1009,6 47 0 0,0
13.06.2019 09:00:00 11,5 10,4 10,8 13,5 13,3 13 7 19 10 WSW 1009,4 20 0 0,0
13.06.2019 08:00:00 10,3 9,8 3,9 13,7 13,2 9 5 12 6 SW 1009,1 19 24 0,0
13.06.2019 07:00:00 7,4 7,0 3,4 14,0 13,4 9 5 10 6 SSW 1009,2 8 11 0,0

tt = Température de l'air
td = dewpoint
tt 5cm = Température de l'air 5cm
tt -20cm = Température de l'air -20cm
tt -100cm = Température de l'air -100cm
ff = Vitesse du vent
fx = gusts
dd = Direction du vent
ppp = reduced air pressure
vv = visibility
sd = Ensoleillement
rr = Quantités de précipitations

stations d'obs. à proximité